Location: Franzen
(48.6167°N, 15.3833°E)
Time: 12:04:32
(UTC+00:00)

Cosmos 1655 Rocket - Pass Details

Date: 03 August 2021
Orbit: 969 x 1007 km, 82.9° (Epoch: 25 September)

Event Time Altitude Azimuth Distance (km) Brightness Sun altitude
Exits shadow 22:51:37 - 248° (WSW) 3,722 6.9 -24.1°
Reaches altitude 10° 22:55:34 10° 272° (W) 2,783 6.4 -24.1°
Maximum altitude 22:58:53 14° 303° (WNW) 2,477 6.5 -24.1°
Drops below altitude 10° 23:02:13 10° 335° (NNW) 2,795 7.3 -24.1°
Sets 23:06:13 0° 359° (N) 3,750 8.5 -24.1°
